Regional Weather Roundup
Issued by NWS

Home | Current Version | Previous Version | Graphics & Text | Print | Product List | Glossary On
Versions: 1 2 3 4 5 6 7 8 9 10 11 12 13 14 15 16 17 18 19 20 21 22 23 24 25 26 27 28 29 30 31 32 33 34 35 36 37 38 39 40 41 42 43 44 45 46 47 48 49 50
000
ASUS43 KMKX 300300
RWRWI

WISCONSIN REGIONAL WEATHER ROUNDUP
NATIONAL WEATHER SERVICE MILWAUKEE/SULLIVAN WI
1000 PM CDT WED MAR 29 2017

NOTE: "FAIR" INDICATES FEW OR NO CLOUDS BELOW 12,000 FEET WITH NO
SIGNIFICANT WEATHER AND/OR OBSTRUCTIONS TO VISIBILITY.

WIZ001-002-006>008-014>016-023>028-300400-
NORTHWEST WISCONSIN

CITY           SKY/WX    TMP DP  RH WIND       PRES   REMARKS
SUPERIOR ARPT  CLOUDY    33  31  92 NE12G17   30.22F WCI  25
ASHLAND        CLOUDY    32  28  85 N5        30.20F WCI  27
HAYWARD        CLOUDY    39  30  70 N6        30.16F WCI  35
SIREN          CLOUDY    41  32  70 NE6       30.15F
CUMBERLAND     CLOUDY    43  32  65 SE6       30.15F
RICE LAKE      CLOUDY    44  33  66 CALM      30.17F
CHETEK         CLOUDY    44  34  68 SE12      30.17F
LADYSMITH      CLOUDY    43  32  64 SE3       30.19F
EAU CLAIRE     NOT AVBL
MENOMONIE      DRIZZLE   41  38  90 E9        30.17F
NEW RICHMOND   CLOUDY    42  36  78 SE8       30.15F
OSCEOLA        CLOUDY    44  37  75 SE8       30.17F
$$

WIZ003>005-009-010-017-018-300400-
NORTH CENTRAL WISCONSIN

CITY           SKY/WX    TMP DP  RH WIND       PRES   REMARKS
MANITOWISH WTR CLOUDY    40  28  63 SE3       30.19S
ARBOR VITAE    CLOUDY    42  29  61 SE3       30.19S
WOODRUFF       CLOUDY    42  29  61 SE3       30.19S
RHINELANDER    MOCLDY    38  28  67 SE6       30.19F WCI  33
EAGLE RIVER    CLOUDY    40  25  56 SE5       30.20S
LAND O LAKES   CLOUDY    38  28  67 CALM      30.22S
PHILLIPS       CLOUDY    40  30  67 SE3       30.18S
TOMAHAWK       PTCLDY    38  29  70 CALM      30.20F
MEDFORD        CLOUDY    38  31  76 SE8       30.17F WCI  32
MERRILL        CLOUDY    39  30  68 SE6       30.20F
$$

WIZ029-030-035-036-043>047-300400-
CENTRAL WISCONSIN

CITY           SKY/WX    TMP DP  RH WIND       PRES   REMARKS
WAUSAU         LGT RAIN  36  30  79 SE15      30.19F WCI  27
MOSINEE        DRIZZLE   36  34  93 E8        30.21F WCI  29
MARSHFIELD     LGT RAIN  36  33  89 E13       30.16F WCI  27
STEVENS POINT  LGT RAIN  33  33  99 E9        30.21F WCI  25
WAUPACA        LGT RAIN  38  30  73 E7        30.22F WCI  32
WAUTOMA        LGT RAIN  36  30  79 NE10      30.17F WCI  28
WISC RAPIDS    LGT RAIN  35  35 100 E12       30.20F WCI  27
CAMP DOUGLAS   NOT AVBL
$$

WIZ011>013-019>022-031-037>040-048>050-300400-
NORTHEAST WISCONSIN

CITY           SKY/WX    TMP DP  RH WIND       PRES   REMARKS
ANTIGO         CLOUDY    36  28  71 SE12      30.20F WCI  28
SHAWANO        LGT SNOW  37  30  74 E8        30.25F WCI  31
OCONTO         CLOUDY    37  26  66 CALM      30.26F
STURGEON BAY   LGT RAIN  37  30  75 NE8       30.26R WCI  31
GREEN BAY      CLOUDY    38  31  76 NE8       30.23F WCI  32
MANITOWOC      NOT AVBL
APPLETON       CLOUDY    37  27  65 NE8       30.20S WCI  31
CLINTONVILLE   FLURRIES  36  28  75 E9        30.24F WCI  29
OSHKOSH        CLOUDY    38  30  73 NE10      30.19S WCI  31
$$

WIZ032>034-041-042-053>061-300400-
SOUTHWEST WISCONSIN

CITY           SKY/WX    TMP DP  RH WIND       PRES   REMARKS
LA CROSSE      CLOUDY    42  37  82 E14G25    30.12F
SPARTA         CLOUDY    39  36  90 E9G16     30.16F WCI  33
VIROQUA        CLOUDY    38  36  89 E16G23    30.10F WCI  30
BOSCOBEL       LGT RAIN  41  40  96 E12G22    30.10F
PRAIRIE DU CHI DRIZZLE   39  38  97 E15       30.08S WCI  31
PLATTEVILLE    CLOUDY    40  40 100 NE21G28   30.06F WCI  30
$$

WIZ056-057-062-063-064-067-068-300400-
SOUTH CENTRAL WISCONSIN

CITY           SKY/WX    TMP DP  RH WIND       PRES   REMARKS
REEDSBURG      CLOUDY    40  31  70 E9        30.14F WCI  34
BARABOO/DELLS  CLOUDY    40  30  68 E10G17    30.14F WCI  33
LONE ROCK      LGT RAIN  40  36  86 E20       30.12F FOG     WCI  30
MINERAL POINT  LGT RAIN  39  39 100 NE20G26   30.08F WCI  30
MADISON        LGT RAIN  38  35  89 E10       30.14S WCI  31
MIDDLETON      CLOUDY    40  37  90 E12G20    30.14R WCI  33
WATERTOWN      LGT RAIN  38  35  90 E8        30.14F WCI  32
MONROE         CLOUDY    39  37  93 NE18G26   30.07S WCI  30
JANESVILLE     CLOUDY    41  39  93 NE17G23   30.09F
$$

WIZ051-052-058>065-066-070>072-300400-
SOUTHEAST WISCONSIN

CITY           SKY/WX    TMP DP  RH WIND       PRES   REMARKS
MILWAUKEE      LGT RAIN  38  35  89 NE14      30.15F WCI  30
WAUKESHA       RAIN      36  32  87 NE9       30.16F WCI  29
MILWAUKEE/TIMM LGT RAIN  37  32  81 E5        30.19S WCI  34
RACINE         LGT RAIN  39  36  89 NE15      30.14F WCI  31
KENOSHA        CLOUDY    40  37  89 NE16      30.10F WCI  31
FOND DU LAC    CLOUDY    39  29  67 NE10      30.19R WCI  32
SHEBOYGAN      CLOUDY    38  31  76 NE13      30.20R WCI  30
WEST BEND      LGT RAIN  36  32  87 CALM      30.18R
JUNEAU         RAIN      38  31  73 NE3       30.18S
$$

LSZ147-162-300400-
LAKE SUPERIOR

STATION/POSITION TIME  TEMP    WIND        PRES    WAVE
                       AIR SEA DIR/SP/G            HT/PER
                 (UTC) (F)     (DEG/KT/KT) (MB)    (FT/S)
DEVILS ISLAND    0200   35      50/ 15/ 17 1024.5R
PORT WING        0240   35      40/ 13/ 16 1023.4F
SAXON HARBOR     0240   33      CALM  /  1 1022.7S
$$

LMZ867-665-643>646-300400-
LAKE MICHIGAN

STATION/POSITION TIME  TEMP    WIND        PRES    WAVE
                       AIR SEA DIR/SP/G            HT/PER
                 (UTC) (F)     (DEG/KT/KT) (MB)    (FT/S)
CHAMBERS ISLAND  0240   33      10/  7/  8 1024.0S
NORTHPORT PIER   0240   36      60/  5/  8 1024.4R
SISTER BAY       0151   37     110/  8/ 11   N/A
KEWAUNEE LAKESHO 0230   37      20/ 11/ 14 1023.0F
SHEBOYGAN LAKESH 0200   36      10/ 17/ 19 1022.6F
PORT WASHINGTON  0230   39      20/  3/ 11 1023.0R
MILWAUKEE LAKESH 0230   37     350/  9/ 11   N/A
KENOSHA   LAKESH 0200   39      10/ 19/ 23 1020.3
$$

TC  - TEMPERATURE IN CELSIUS
VSB - VISIBILITY IN STATUTE MILES
WCI - WIND CHILL INDEX
HX  - HEAT INDEX





USA.gov is the U.S. government's official web portal to all federal, state and local government web resources and services.